This is the latest recevied weather packets stored in our database for station/object I1SXT-13. If no packets are shown the sender has not sent any weather packets the latest 10 day(s).
| Time | Temp. | Humidity | Pressure | Rain* | Wind** | Luminosity | Snow |
|---|---|---|---|---|---|---|---|
| 1777945169 | 13.33° C | 92% | 1014.6 hPa | 0 mm | - | - | - |
| 1777944865 | 13.89° C | 92% | 1014.3 hPa | 0 mm | - | - | - |
| 1777944568 | 13.89° C | 91% | 1014.1 hPa | 0 mm | - | - | - |
| 1777944264 | 13.89° C | 91% | 1014.8 hPa | 0 mm | - | - | - |
| 1777943966 | 13.89° C | 91% | 1014.7 hPa | 0 mm | - | - | - |
| 1777943365 | 13.89° C | 90% | 1015 hPa | 0 mm | - | - | - |
| 1777943068 | 13.89° C | 90% | 1014.8 hPa | 0 mm | - | - | - |
| 1777942466 | 14.44° C | 88% | 1014.9 hPa | 0 mm | - | - | - |
| 1777942170 | 14.44° C | 87% | 1014.6 hPa | 0 mm | - | - | - |
| 1777941865 | 14.44° C | 86% | 1014.8 hPa | 0 mm | - | - | - |
| 1777941568 | 14.44° C | 83% | 1015.1 hPa | 0 mm | - | - | - |
| 1777941264 | 15° C | 84% | 1015.2 hPa | 0 mm | - | - | - |
| 1777940967 | 15° C | 81% | 1016.5 hPa | 0 mm | - | - | - |
| 1777940670 | 15.56° C | 79% | 1016.1 hPa | 0 mm | - | - | - |
| 1777940366 | 15.56° C | 77% | 1015.3 hPa | 0 mm | - | - | - |
| 1777940069 | 15.56° C | 73% | 1016.5 hPa | 0 mm | - | - | - |
| 1777939765 | 15.56° C | 74% | 1016.3 hPa | 0 mm | - | - | - |
| 1777939468 | 15.56° C | 71% | 1015.8 hPa | 0 mm | - | - | - |
| 1777939164 | 15.56° C | 73% | 1016.4 hPa | 0 mm | - | - | - |
| 1777938866 | 16.11° C | 74% | 1016.2 hPa | 0 mm | - | - | - |
| 1777938569 | 15.56° C | 71% | 1016.5 hPa | 0 mm | - | - | - |
| 1777937664 | 16.11° C | 74% | 1016.8 hPa | 0 mm | - | - | - |
| 1777937367 | 16.11° C | 72% | 1016.9 hPa | 0 mm | - | - | - |
| 1777937070 | 16.11° C | 71% | 1016.5 hPa | 0 mm | - | - | - |
| 1777936766 | 16.11° C | 73% | 1016.5 hPa | 0 mm | - | - | - |
* Rain since midnight (hover to see other rain measurements)
** Current wind speed in m/s (hover to see current wind gust speed)